Waarnemingen

Advertentie
Mijn weer
Salon, Frankrijk (7648): temperatuur & dauwpunt: 15.08.2019 07:00:00 - 21.08.2019 07:00:00 (CEST)Salon, Frankrijk (7648): temperatuur 5cm: 15.08.2019 07:00:00 - 21.08.2019 07:00:00 (CEST)Salon, Frankrijk (7648): windsnelheid & windstoten: 15.08.2019 07:00:00 - 21.08.2019 07:00:00 (CEST)Salon, Frankrijk (7648): windrichting: 15.08.2019 07:00:00 - 21.08.2019 07:00:00 (CEST)Salon, Frankrijk (7648): luchtdruk: 15.08.2019 07:00:00 - 21.08.2019 07:00:00 (CEST)Salon, Frankrijk (7648): zicht: 15.08.2019 07:00:00 - 21.08.2019 07:00:00 (CEST)Salon, Frankrijk (7648): neerslag: 15.08.2019 07:00:00 - 21.08.2019 07:00:00 (CEST)
Datum & Tijd tt [°C] td [°C] tt 5cm [°C] ff [km/u] ff [kn] fx [km/u] fx [kn] dd ppp [hPa] vv [km] rr [mm]
21.08.2019 07:00:00 - - - - - - - - - - -
21.08.2019 06:00:00 16,5 11,2 15,9 16 9 27 14 N 1018,3 60 0,0
21.08.2019 05:00:00 16,8 11,5 15,9 17 9 35 19 N 1018,2 60 0,0
21.08.2019 04:00:00 17,0 11,9 16,4 19 11 36 20 N 1018,3 60 0,0
21.08.2019 03:00:00 17,1 11,8 16,7 20 11 46 25 N 1018,3 60 0,0
21.08.2019 02:00:00 17,5 12,0 17,1 26 14 49 27 NNW 1018,4 60 0,0
21.08.2019 01:00:00 17,8 12,5 17,4 27 15 46 25 NNW 1018,6 60 0,0
21.08.2019 00:00:00 18,1 12,5 17,6 24 13 43 23 NNW 1018,8 60 0,0
20.08.2019 23:00:00 18,1 12,8 17,6 9 5 35 19 NW 1019,3 60 0,0
20.08.2019 22:00:00 18,6 12,8 18,2 19 11 48 26 NW 1019,5 60 0,0
20.08.2019 21:00:00 19,7 13,2 19,2 9 5 29 16 NW 1018,9 60 0,0
20.08.2019 20:00:00 20,7 13,6 21,1 17 9 44 24 NNW 1018,3 60 0,0
20.08.2019 19:00:00 20,3 13,3 20,4 24 13 45 24 NNW 1019,1 59 0,0
20.08.2019 18:00:00 20,9 14,1 21,3 20 11 37 20 NNW 1018,7 60 0,0
20.08.2019 17:00:00 21,6 14,3 22,4 22 12 48 26 NW 1018,8 59 0,0
20.08.2019 16:00:00 21,6 14,0 22,7 24 13 48 26 NNW 1019,4 60 0,0
20.08.2019 15:00:00 22,3 13,6 24,0 32 17 44 24 NNW 1019,5 51 0,0
20.08.2019 14:00:00 24,3 14,1 26,1 19 10 43 23 NW 1018,8 57 0,0
20.08.2019 13:00:00 24,5 14,9 27,1 22 12 35 19 NW 1018,6 60 0,0
20.08.2019 12:00:00 23,9 14,9 27,3 15 8 29 16 NW 1018,5 55 0,0
20.08.2019 11:00:00 23,4 14,9 24,6 11 6 26 14 NW 1018,3 60 0,0
20.08.2019 10:00:00 22,2 14,6 23,4 17 9 28 15 N 1017,9 20 0,0
20.08.2019 09:00:00 21,5 14,4 21,9 22 12 33 18 NNW 1017,7 51 0,0
20.08.2019 08:00:00 20,7 14,3 20,3 19 10 32 17 NNW 1017,5 45 0,0
20.08.2019 07:00:00 20,7 13,9 20,4 14 8 23 13 NNW 1016,7 60 0,0
20.08.2019 06:00:00 21,2 14,4 20,8 13 7 21 11 NNW 1016,4 60 0,0
20.08.2019 05:00:00 21,2 14,4 21,0 16 8 26 14 N 1016,8 60 0,0
20.08.2019 04:00:00 21,4 14,5 21,2 15 8 21 11 N 1017,0 60 0,0
20.08.2019 03:00:00 21,5 14,6 21,1 11 6 16 9 N 1017,1 60 0,0
20.08.2019 02:00:00 21,8 16,1 21,1 6 4 12 6 N 1017,3 60 0,0
20.08.2019 01:00:00 22,3 15,9 22,1 11 6 22 12 N 1017,8 60 0,0
20.08.2019 00:00:00 23,6 16,4 23,5 10 5 21 11 NW 1018,2 60 0,0
19.08.2019 23:00:00 24,1 20,0 23,6 5 3 10 6 Z 1017,6 31 0,0
19.08.2019 22:00:00 24,3 20,2 23,8 5 3 11 6 ZW 1017,7 31 0,0
19.08.2019 21:00:00 24,8 20,3 24,5 8 4 16 8 Z 1016,8 31 0,0
19.08.2019 20:00:00 25,7 19,8 26,1 8 5 13 7 ZZW 1017,0 31 0,0
19.08.2019 19:00:00 26,2 20,3 27,3 9 5 16 9 ZW 1016,6 32 0,0
19.08.2019 18:00:00 27,0 20,3 28,7 11 6 18 10 ZZW 1016,3 27 0,0
19.08.2019 17:00:00 26,6 20,9 25,8 12 7 23 12 ZZW 1016,4 29 0,0
19.08.2019 16:00:00 26,6 20,2 28,8 14 7 28 15 ZZW 1016,5 38 0,0
19.08.2019 15:00:00 28,6 19,0 32,1 16 8 27 15 ZZW 1016,3 31 0,0
19.08.2019 14:00:00 29,6 18,1 35,1 13 7 21 11 ZZW 1015,9 25 0,0
19.08.2019 13:00:00 29,0 18,5 32,2 5 3 21 11 W 1016,0 39 0,0
19.08.2019 12:00:00 28,3 18,4 31,7 5 3 16 9 NNO 1016,2 36 0,0
19.08.2019 11:00:00 26,3 17,9 29,0 6 3 12 7 N 1016,5 40 0,0
19.08.2019 10:00:00 26,2 19,1 29,3 6 3 11 6 NW 1016,5 26 0,0
19.08.2019 09:00:00 23,6 18,0 22,2 3 2 8 4 O 1016,3 19 0,0
19.08.2019 08:00:00 19,7 17,7 17,3 5 3 9 5 NO 1016,3 14 0,0
19.08.2019 07:00:00 17,9 16,2 16,8 3 2 11 6 NNO 1016,1 16 0,2
19.08.2019 06:00:00 18,0 16,2 16,9 6 3 10 5 NNO 1015,8 19 0,0
19.08.2019 05:00:00 18,1 16,4 17,0 0 0 8 5 N 1015,9 16 0,0
19.08.2019 04:00:00 18,2 16,5 17,2 9 5 11 6 NO 1016,1 16 0,0
19.08.2019 03:00:00 19,2 17,7 17,8 5 3 8 4 ONO 1015,9 11 0,0
19.08.2019 02:00:00 20,2 18,7 18,4 0 0 6 3 N 1016,3 14 0,0
19.08.2019 01:00:00 20,5 18,6 19,3 3 2 5 3 OZO 1016,3 15 0,0
19.08.2019 00:00:00 21,4 19,7 20,0 0 0 13 7 N 1016,1 17 0,0
18.08.2019 23:00:00 22,0 19,9 21,5 9 5 16 9 NW 1015,9 23 0,0
18.08.2019 22:00:00 22,7 19,7 21,6 7 4 10 5 WNW 1015,2 27 0,0
18.08.2019 21:00:00 24,4 16,9 23,3 2 1 16 9 W 1014,0 45 0,0
18.08.2019 20:00:00 26,7 14,8 26,6 10 5 27 15 W 1013,7 59 0,0
18.08.2019 19:00:00 27,7 16,6 31,4 16 9 36 20 ZW 1013,5 42 0,0
18.08.2019 18:00:00 27,6 18,3 32,0 21 11 45 24 ZZW 1013,5 35 0,0
18.08.2019 17:00:00 29,5 16,3 34,7 25 14 40 22 ZZW 1013,4 35 0,0
18.08.2019 16:00:00 29,5 17,7 35,6 20 11 35 19 Z 1013,8 39 0,0
18.08.2019 15:00:00 30,8 17,5 37,8 19 10 36 19 Z 1013,9 42 0,0
18.08.2019 14:00:00 30,1 15,0 35,8 20 11 36 20 Z 1014,3 47 0,0
18.08.2019 13:00:00 29,2 19,2 35,0 20 11 31 17 Z 1014,7 54 0,0
18.08.2019 12:00:00 28,5 19,2 34,4 16 9 30 16 ZZW 1015,0 55 0,0
18.08.2019 11:00:00 27,3 17,8 32,5 12 7 23 12 ZZO 1015,1 48 0,0
18.08.2019 10:00:00 25,8 18,2 29,7 8 5 17 9 ZZO 1015,3 37 0,0
18.08.2019 09:00:00 23,7 17,7 23,6 6 3 13 7 ONO 1015,1 20 0,0
18.08.2019 08:00:00 19,8 17,2 16,9 9 5 11 6 NO 1014,8 20 0,0
18.08.2019 07:00:00 17,9 16,6 16,3 5 3 9 5 NNO 1014,6 15 0,0
18.08.2019 06:00:00 18,0 16,7 16,5 5 3 14 8 ONO 1014,6 11 0,0
18.08.2019 05:00:00 18,1 16,6 16,2 6 4 9 5 ONO 1015,0 12 0,0
18.08.2019 04:00:00 18,6 17,1 17,1 6 3 10 5 ONO 1015,3 10 0,0
18.08.2019 03:00:00 19,3 17,6 17,7 2 1 8 5 O 1015,7 10 0,0
18.08.2019 02:00:00 19,7 18,0 18,3 7 4 9 5 NO 1015,9 12 0,0
18.08.2019 01:00:00 20,2 18,3 18,6 2 1 5 3 ONO 1016,1 13 0,0
18.08.2019 00:00:00 21,9 19,5 19,7 3 1 9 5 ZO 1016,1 12 0,0
17.08.2019 23:00:00 23,6 20,5 22,9 6 3 11 6 ZO 1015,8 18 0,0
17.08.2019 22:00:00 24,4 20,5 24,2 5 3 14 8 Z 1015,9 20 0,0
17.08.2019 21:00:00 24,2 20,5 24,3 9 5 23 12 ZZO 1015,5 22 0,0
17.08.2019 20:00:00 24,3 20,4 24,7 11 6 23 12 Z 1015,4 24 0,0
17.08.2019 19:00:00 26,7 20,3 31,4 13 7 24 13 Z 1015,1 52 0,0
17.08.2019 18:00:00 28,2 17,4 34,3 14 8 28 15 Z 1015,1 46 0,0
17.08.2019 17:00:00 28,9 16,1 35,8 19 10 30 16 Z 1015,2 41 0,0
17.08.2019 16:00:00 29,3 15,4 34,1 18 10 31 17 ZZW 1015,4 44 0,0
17.08.2019 15:00:00 29,3 13,5 34,0 15 8 25 14 Z 1015,7 48 0,0
17.08.2019 14:00:00 29,0 13,2 35,7 12 6 24 13 Z 1016,2 51 0,0
17.08.2019 13:00:00 28,4 13,9 32,8 14 7 22 12 Z 1016,6 53 0,0
17.08.2019 12:00:00 27,6 13,2 33,3 14 7 23 12 ZZW 1016,6 60 0,0
17.08.2019 11:00:00 26,8 13,5 33,0 11 6 16 8 ZW 1016,8 60 0,0
17.08.2019 10:00:00 25,7 12,5 26,0 2 1 7 4 ZW 1016,5 58 0,0
17.08.2019 09:00:00 20,7 12,7 20,9 4 2 11 6 NO 1016,6 60 0,0
17.08.2019 08:00:00 16,9 12,6 12,6 8 5 10 5 NNO 1016,4 57 0,0
17.08.2019 07:00:00 14,1 11,6 12,1 5 3 8 4 NNO 1016,7 20 0,0
17.08.2019 06:00:00 15,0 12,1 12,2 2 1 8 4 NO 1016,6 59 0,0
17.08.2019 05:00:00 15,4 12,5 13,1 0 0 5 3 N 1016,4 60 0,0
17.08.2019 04:00:00 16,4 12,7 14,2 0 0 7 4 N 1016,5 60 0,0
17.08.2019 03:00:00 16,4 12,9 14,7 6 3 13 7 NNO 1016,5 20 0,0
17.08.2019 02:00:00 16,6 12,5 15,0 4 2 8 5 NO 1016,8 20 0,0
17.08.2019 01:00:00 16,7 12,0 15,5 4 2 8 4 NO 1017,2 20 0,0
17.08.2019 00:00:00 18,8 12,3 16,5 0 0 8 4 N 1017,3 20 0,0
16.08.2019 23:00:00 21,4 13,6 18,7 5 3 7 4 ZZW 1016,8 20 0,0
16.08.2019 22:00:00 22,9 12,8 21,2 3 1 12 6 ZZW 1016,2 60 0,0
16.08.2019 21:00:00 24,2 13,7 23,1 8 4 16 9 ZZW 1015,4 20 0,0
16.08.2019 20:00:00 27,2 11,6 27,6 9 5 16 8 ZZW 1014,7 20 0,0
16.08.2019 19:00:00 28,6 11,6 30,5 11 6 25 14 ZZW 1014,5 20 0,0
16.08.2019 18:00:00 29,4 12,8 34,1 15 8 27 15 ZZW 1014,7 52 0,0
16.08.2019 17:00:00 29,6 12,9 35,1 17 9 28 15 ZZW 1015,0 60 0,0
16.08.2019 16:00:00 30,2 8,6 34,6 10 5 22 12 WZW 1015,2 60 0,0
16.08.2019 15:00:00 30,1 6,7 36,1 9 5 23 12 ZW 1015,6 60 0,0
16.08.2019 14:00:00 28,9 9,1 35,8 9 5 27 15 NNW 1015,8 60 0,0
16.08.2019 13:00:00 27,9 9,2 33,3 10 5 19 11 NNW 1016,3 60 0,0
16.08.2019 12:00:00 26,4 10,5 30,9 13 7 29 16 WNW 1016,9 60 0,0
16.08.2019 11:00:00 24,9 10,0 27,5 13 7 35 19 NNW 1016,9 60 0,0
16.08.2019 10:00:00 22,8 10,6 25,2 19 10 37 20 NNW 1017,1 40 -
16.08.2019 09:00:00 21,2 10,7 - 28 15 39 21 N 1016,5 35 0,0
16.08.2019 08:00:00 20,4 10,5 18,8 11 6 41 22 N 1016,2 57 0,0
16.08.2019 07:00:00 19,5 10,2 19,0 30 16 44 24 NNW 1015,5 55 0,0
16.08.2019 06:00:00 20,2 10,0 19,4 12 7 33 18 NW 1015,9 60 0,0
16.08.2019 05:00:00 20,7 9,3 19,7 14 8 42 23 NNW 1016,1 60 0,0
16.08.2019 04:00:00 21,0 8,9 20,1 11 6 36 20 NW 1016,5 60 0,0
16.08.2019 03:00:00 21,7 9,2 21,0 22 12 41 22 NNW 1015,8 60 0,0
16.08.2019 02:00:00 22,4 9,9 21,8 27 15 47 25 NW 1016,1 60 0,0
16.08.2019 01:00:00 23,3 10,0 22,6 26 14 41 22 NW 1016,1 60 0,0
16.08.2019 00:00:00 23,8 10,5 23,1 21 12 37 20 NW 1016,4 60 0,0
15.08.2019 23:00:00 24,2 11,2 23,4 19 10 37 20 NNW 1016,2 60 0,0
15.08.2019 22:00:00 25,7 11,5 24,9 23 13 44 24 NW 1016,0 60 0,0
15.08.2019 21:00:00 26,9 11,0 26,3 22 12 36 19 NNW 1015,3 60 0,0
15.08.2019 20:00:00 29,0 12,0 29,5 20 11 34 18 NNW 1014,8 60 0,0
15.08.2019 19:00:00 30,0 11,0 33,1 18 10 34 18 W 1014,2 54 0,0
15.08.2019 18:00:00 30,7 12,1 34,5 22 12 48 26 WNW 1014,2 54 0,0
15.08.2019 17:00:00 30,5 11,9 33,1 24 13 46 25 W 1014,5 60 0,0
15.08.2019 16:00:00 30,8 13,6 34,2 22 12 44 24 W 1014,6 58 0,0
15.08.2019 15:00:00 30,7 13,0 31,9 21 12 38 21 W 1015,2 60 0,0
15.08.2019 14:00:00 30,4 13,7 32,9 19 11 44 24 WNW 1015,6 60 0,0
15.08.2019 13:00:00 29,2 13,0 34,7 15 8 36 20 WNW 1016,3 60 0,0
15.08.2019 12:00:00 28,2 10,8 32,0 10 6 23 13 NNW 1016,8 60 0,0
15.08.2019 11:00:00 25,6 11,4 26,9 13 7 23 12 WNW 1017,2 58 0,0
15.08.2019 10:00:00 25,0 10,8 27,0 13 7 20 11 W 1017,0 48 0,0
15.08.2019 09:00:00 22,6 10,1 23,1 7 4 19 10 WNW 1017,0 60 0,0
15.08.2019 08:00:00 20,5 9,1 19,0 9 5 24 13 W 1016,8 60 0,0
15.08.2019 07:00:00 20,3 8,6 18,9 3 1 21 11 W 1016,2 60 0,0

tt = temperatuur
td = dauwpunt
tt 5cm = temperatuur 5cm
ff = windsnelheid
fx = windstoten
dd = windrichting
ppp = luchtdruk
vv = zicht
rr = neerslag

Weerstations in de omgeving